2025-292D (66996 NORAD) Tracking and Keplerian Element Data

This shows tracking and keplerian element data for the satellite.

Feedback or suggestion? Click here.




ElementValue
Catalog66996
Name2025-292D
Epoch Orbit151
Epoch Day354.18863081
Epoch Year2025
RAAN66.6687
Inclination97.6517
Eccentricity0.0013202
Argument of Perigee248.1837
Mean Anonmoly111.7984
Mean Motion15.04642118
Decay Rate2.148E-05
L11 66996U 25292D 25354.18863081 .00002148 00000+0 15698-3 0 9996
L22 66996 97.6517 66.6687 0013202 248.1837 111.7984 15.04642118 1513



Live tracking and technical data element details for 2025-292D (NORAD 66996). 2025-292D can be tracked NOW for your location showing map with azimuth and elevation plus other details from your city location.







IsCatalogInMostPopularTable: catalog: 66996, numindb: 39
Update: records affected: 1



GetName: 66996 2025-292D

Hit Count: updated at: Tue, 17 Feb 2026 12:42:34 GMT